Location: Peebles
(55.6412°N, 3.1714°W)
Time: 22:06:06
(UTC+01:00)

deb AGENA D - Pass Details

Date: 05 July 2022
Orbit: 951 x 1019 km, 99.8° (Epoch: 17 August)

Event Time Altitude Azimuth Distance (km) Brightness Sun altitude
Exits shadow 00:21:40 - 121° (ESE) 3,748 ? -10.7°
Reaches altitude 10° 00:24:23 10° 112° (ESE) 2,809 ? -10.7°
Maximum altitude 00:29:50 32° 52° (NE) 1,678 ? -10.9°
Drops below altitude 10° 00:35:18 10° 352° (N) 2,808 ? -11.0°
Sets 00:38:01 0° 343° (NNW) 3,755 ? -11.1°
